User: anonymous   Login
Location: Caltech
(34.1382°N, 118.1253°W)
Time: 19:41:59
(UTC-07:00)
Language:

ADEOS II - Orbit

View from above orbital plane
View from above orbital plane
View from above satellite
View from above satellite

Ground track
Ground track

The orbit data is extracted from the following two-line orbital elements,

1 27597U 02056A   16237.01936919  .00000050  00000-0  37098-4 0  9996
2 27597  98.3280 213.8987 0002166 101.4884 258.6541 14.27228490713035
Epoch (UTC): 24 August 2016 00:27:53
Eccentricity: 0.0002166
inclination: 98.3280°
perigee height: 799 km
apogee height: 802 km
right ascension of ascending node: 213.8987°
argument of perigee: 101.4884°
revolutions per day: 14.27228490
mean anomaly at epoch: 258.6541°
orbit number at epoch: 71303

The dashed part of the orbit path shows where the satellite is in the earth's shadow,  

DLR